Terug naar catalogus

SL-8 R/B

ActiefLEO
NORAD 19039·ROCKET BODY·🇷🇺 Russia

Gelanceerd Apr 5, 1988 vanaf Plesetsk Cosmodrome

Loading…

Volgende Passages (komende 24 uur)

TLE

VersSource: Space-Track

Epoch: Sep 14, 2026, 06:41 UTC

1 19039U 88029B   26257.27901674  .00000181  00000-0  65683-4 0  9999
2 19039  74.0477 197.3200 0024442 253.7850 106.0615 14.40038942 16079

Volg SL-8 R/B in realtime met AllMySat

Download on the App Store